Location: ????????
(55.6189°N, 38.3031°E)
Time: 15:58:13
(UTC+00:00)

ADEOS Rocket - Pass Details

Date: 15 November 2019
Orbit: 858 x 1307 km, 98.7° (Epoch: 11 December)

Event Time Altitude Azimuth Distance (km) Brightness Sun altitude
Rises 03:57:26 0° 166° (SSE) 4,289 6.9 -8.8°
Reaches altitude 10° 04:00:10 10° 167° (SSE) 3,317 6.2 -8.5°
Maximum altitude 04:07:57 79° 255° (WSW) 1,298 3.6 -7.4°
Drops below altitude 10° 04:15:20 10° 342° (NNW) 3,153 5.3 -6.5°
Sets 04:17:53 0° 344° (NNW) 4,067 5.9 -6.1°
